Regional Weather Roundup
Issued by NWS Albany, NY

Home | Current Version | Previous Version | Text Only | Print | Product List | Glossary On
Versions: 1 2 3 4 5 6 7 8 9 10 11 12 13 14 15 16 17 18 19 20 21 22 23 24 25 26 27 28 29 30 31 32 33 34 35 36 37 38 39 40 41 42 43 44 45 46 47 48 49 50
000
ASUS41 KALY 300410
RWRALY

NEW YORK STATE HOURLY WEATHER ROUNDUP
NATIONAL WEATHER SERVICE ALBANY NY
1200 AM EDT SAT MAY 30 2015

NOTE: "FAIR" INDICATES FEW OR NO CLOUDS BELOW 12,000 FEET WITH NO
SIGNIFICANT WEATHER AND/OR NO OBSTRUCTIONS TO VISIBILITY.

NYZ032-033-038>043-046>054-057>066-NYZ062>081-300500-
EAST


CITY           SKY/WX    TMP DP  RH WIND       PRES   REMARKS
ALBANY         MOCLDY    72  56  57 S13       30.17F
GLENS FALLS    PTCLDY    61  56  83 CALM      30.16F
POUGHKEEPSIE   PTCLDY    68  58  70 S3        30.21S
NEWBURGH       CLEAR     70  59  68 CALM      30.23
MONTGOMERY     PTCLDY    66  58  75 S6        30.22F
WHITE PLAINS   PTCLDY    62  58  86 CALM      30.23F
ISLIP          MOCLDY    62  59  90 S5        30.22F FOG
NEW YORK CITY  MOCLDY    67  60  78 S8        30.22F
CENTRAL PARK   PTCLDY    68  61  78 CALM      30.25F
$$

NYZ005>009-017-018-044>046-055-056-300500-
CENTRAL


CITY           SKY/WX    TMP DP  RH WIND       PRES   REMARKS
FULTON         CLEAR     71  57  61 SE5       30.07F
SYRACUSE       PTCLDY    71  58  63 E5        30.08F
ROME           CLEAR     67  57  70 SE5       30.14S
ELMIRA         FAIR      68  62  81 CALM      30.13F
BINGHAMTON     CLEAR     69  58  67 S6        30.18F
MONTICELLO     MOCLDY    64  57  77 S9        30.25S
$$

NYZ026>034-041>043-300500-
NORTH


CITY           SKY/WX    TMP DP  RH WIND       PRES   REMARKS
WATERTOWN      PTCLDY    74  54  49 S9        30.05F
FORT DRUM      NOT AVBL
MASSENA        CLEAR     57  55  93 CALM      30.07F
SARANAC LAKE   CLEAR     52  50  93 CALM      30.15F
PLATTSBURGH    PTCLDY    57  55  93 CALM      30.10F
$$

NYZ001>004-010>016-019>021-300500-
WEST


CITY           SKY/WX    TMP DP  RH WIND       PRES   REMARKS
NIAGARA FALLS  MOCLDY    69  66  90 SW7       30.04F
BUFFALO        MOCLDY    75  62  64 SW14      30.05F
DUNKIRK        PTCLDY    73  63  70 S18G25    30.05S
JAMESTOWN      CLEAR     66  61  82 S8        30.14S
WELLSVILLE     MOCLDY    70  62  76 SW8       30.17F
ROCHESTER      MOCLDY    77  60  55 S10       30.05F
PENN YAN       CLEAR     75  61  61 SW7       30.11F
$$

             KEY
       WCI = WIND CHILL INDEX
       VSB = VISIBILITY
       HX  = HEAT INDEX
$$



USA.gov is the U.S. government's official web portal to all federal, state and local government web resources and services.